WNISAT-1

Last updated on Wed Sep 17 2025 00:03:48 GMT+0000 (Coordinated Universal Time)

1 39423U 13066H 25259.40451203 .00000619 00000+0 12249-3 0 9995 2 39423 97.6878 63.7028 0165261 14.7236 345.8694 14.57307302626845
UTC large
Height (km)
Speed (km/s)
/
Latitude / Longitude
Inclination (degrees)
Orbital Period (minutes)
Azimuth
Elevation
Range (km)
Doppler Factor

Next 0 passes for location: London (51.5072 / 0.1276)

Sorry there are no passes over London.